Weather History for Big Bear City, CA

Change the Weather History Date:

Friday, March 8, 2013

  Actual Average (KBUO) Record (KBUO)
Temperature  
Mean Temperature 27 °F -  
Max Temperature 30 °F 62 °F 75 °F (1997)
Min Temperature 24 °F 41 °F 39 °F (1998)
Degree Days  
Heating Degree Days 38    
Moisture  
Dew Point 22 °F    
Average Humidity 79    
Maximum Humidity 93    
Minimum Humidity 59    
Precipitation  
Precipitation 0.26 in - - ()
Sea Level Pressure  
Sea Level Pressure 29.76 in    
Wind  
Wind Speed 6 mph (WSW)    
Max Wind Speed 16 mph    
Max Gust Speed 31 mph    
Visibility 5 miles    
Events Snow    
Averages and records for this station are not official NWS values.
T = Trace of Precipitation, MM = Missing Value Source: NWS Daily Summary

Daily Weather History Graph

Daily Weather History Graph

Search for Another Location

Airport:

Trip Planner

Search our weather history database for the weather conditions in past years. The results will help you decide how hot, cold, wet, or windy it might be!

Date:

Astronomy

Mar. 08, 2013 Rise Set
Actual Time 6:06 AM PST 5:49 PM PST
Civil Twilight 5:41 AM PST 6:14 PM PST
Nautical Twilight 5:12 AM PST 6:43 PM PST
Astronomical Twilight 4:43 AM PST 7:13 PM PST
Moon 3:47 AM PST (3/8) 2:56 PM PST (3/8)
Length of Visible Light 12h 33m
Length of Day
11h 42m
Waning Crescent, 11% of the Moon is Illuminated
Mar 8
Waning Crescent
Mar 11
New
Mar 19
First Quarter
Mar 27
Full
Apr 2
Last Quarter

Hourly Weather History & Observations

Time (PST) Temp. Windchill Dew Point Humidity Pressure Visibility Wind Dir Wind Speed Gust Speed Precip Events Conditions
12:15 AM 28.4 °F - 23.0 °F 80% 29.79 in 5.0 mi Calm Calm - N/A   Haze
12:35 AM 30.2 °F 22.6 °F 21.2 °F 69% 29.79 in 10.0 mi West 8.1 mph - N/A   Mostly Cloudy
12:55 AM 30.2 °F 26.7 °F 21.2 °F 69% 29.79 in 10.0 mi NW 3.5 mph - N/A   Mostly Cloudy
1:15 AM 30.2 °F 23.4 °F 23.0 °F 75% 29.78 in 10.0 mi WNW 6.9 mph - N/A   Overcast
1:35 AM 30.2 °F 24.3 °F 23.0 °F 75% 29.78 in 2.5 mi West 5.8 mph - N/A Snow Light Snow
1:55 AM 28.4 °F - 24.8 °F 86% 29.76 in 2.0 mi Calm Calm - N/A Snow Light Snow
2:15 AM 28.4 °F - 24.8 °F 86% 29.74 in 2.5 mi Calm Calm - N/A Snow Light Snow
2:35 AM 28.4 °F - 26.6 °F 93% 29.72 in 2.0 mi Calm Calm - N/A Snow Light Snow
2:55 AM 28.4 °F - 26.6 °F 93% 29.71 in 1.8 mi Calm Calm - N/A Snow Light Snow
3:15 AM 28.4 °F - 26.6 °F 93% 29.70 in 1.5 mi Calm Calm - N/A Snow Light Snow
3:35 AM 28.4 °F - 26.6 °F 93% 29.69 in 1.2 mi Calm Calm - 0.01 in Snow Light Snow
3:55 AM 28.4 °F 24.6 °F 26.6 °F 93% 29.68 in 1.5 mi East 3.5 mph - 0.02 in Snow Light Snow
4:15 AM 28.4 °F - 26.6 °F 93% 29.68 in 1.0 mi Calm Calm - 0.01 in Snow Snow
4:35 AM 28.4 °F - 26.6 °F 93% 29.67 in 0.8 mi Calm Calm - 0.03 in Snow Snow
4:55 AM 28.4 °F 24.6 °F 26.6 °F 93% 29.67 in 0.5 mi WNW 3.5 mph - 0.07 in Snow Heavy Snow
5:15 AM 28.4 °F - 26.6 °F 93% 29.67 in 0.5 mi Calm Calm - 0.04 in Snow Heavy Snow
5:35 AM 28.4 °F 23.3 °F 26.6 °F 93% 29.67 in 0.5 mi West 4.6 mph - 0.09 in Snow Heavy Snow
5:55 AM 28.4 °F 23.3 °F 26.6 °F 93% 29.68 in 0.2 mi West 4.6 mph 18.4 mph 0.14 in Snow Heavy Snow
6:15 AM 26.6 °F 14.7 °F 23.0 °F 86% 29.69 in 0.2 mi West 15.0 mph 23.0 mph 0.02 in Snow Snow
6:35 AM 24.8 °F 14.0 °F 21.2 °F 86% 29.70 in 0.5 mi West 11.5 mph 21.9 mph 0.02 in Snow Snow
6:55 AM 24.8 °F 14.0 °F 21.2 °F 86% 29.71 in 0.2 mi West 11.5 mph 17.3 mph 0.02 in Snow Snow
7:15 AM 24.8 °F 17.9 °F 21.2 °F 86% 29.72 in 0.2 mi WSW 5.8 mph 10.4 mph 0.01 in Snow Heavy Snow
7:35 AM 24.8 °F 13.4 °F 21.2 °F 86% 29.70 in 0.5 mi West 12.7 mph 18.4 mph 0.01 in Snow Snow
7:55 AM 26.6 °F 17.5 °F 21.2 °F 80% 29.70 in 0.8 mi WSW 9.2 mph - 0.01 in Snow Light Snow
8:15 AM 26.6 °F 16.8 °F 21.2 °F 80% 29.70 in 2.0 mi SW 10.4 mph 19.6 mph N/A Snow Light Snow
8:35 AM 26.6 °F 14.7 °F 19.4 °F 74% 29.68 in 2.0 mi SW 15.0 mph 28.8 mph N/A Snow Light Snow
8:55 AM 26.6 °F 14.3 °F 19.4 °F 74% 29.69 in 3.0 mi SW 16.1 mph 31.1 mph N/A Snow Light Snow
9:15 AM 28.4 °F 17.5 °F 19.4 °F 69% 29.68 in 1.8 mi SW 13.8 mph 26.5 mph N/A Snow Light Snow
9:35 AM 28.4 °F 20.4 °F 19.4 °F 69% 29.70 in 1.8 mi WSW 8.1 mph 21.9 mph N/A   Haze
9:55 AM 28.4 °F 19.7 °F 19.4 °F 69% 29.71 in 2.0 mi SW 9.2 mph 21.9 mph N/A   Haze
10:15 AM 26.6 °F 16.2 °F 19.4 °F 74% 29.72 in 0.8 mi SW 11.5 mph 23.0 mph N/A Snow Light Snow
10:35 AM 28.4 °F 19.1 °F 17.6 °F 64% 29.73 in 4.0 mi SW 10.4 mph 23.0 mph N/A   Haze
10:55 AM 26.6 °F 19.1 °F 19.4 °F 74% 29.73 in 0.5 mi SW 6.9 mph 21.9 mph N/A Snow Light Snow
11:15 AM 26.6 °F 17.5 °F 19.4 °F 74% 29.74 in 0.5 mi WSW 9.2 mph 20.7 mph N/A Snow Light Snow
11:55 AM 28.4 °F 18.0 °F 15.8 °F 59% 29.74 in 10.0 mi WSW 12.7 mph 21.9 mph N/A   Unknown
12:15 PM 28.4 °F 19.7 °F 17.6 °F 64% 29.74 in 7.0 mi WSW 9.2 mph 17.3 mph N/A   Scattered Clouds
12:35 PM 28.4 °F 19.7 °F 17.6 °F 64% 29.73 in 3.0 mi SW 9.2 mph 16.1 mph N/A Snow Light Snow
12:55 PM 28.4 °F 20.4 °F 19.4 °F 69% 29.73 in 3.0 mi WSW 8.1 mph 18.4 mph N/A Snow Light Snow
1:15 PM 26.6 °F 16.2 °F 19.4 °F 74% 29.73 in 1.2 mi West 11.5 mph 20.7 mph N/A Snow Light Snow
1:35 PM 28.4 °F 20.4 °F 21.2 °F 74% 29.73 in 1.2 mi WSW 8.1 mph 17.3 mph N/A Snow Light Snow
1:55 PM 26.6 °F 17.5 °F 21.2 °F 80% 29.73 in 0.8 mi West 9.2 mph 18.4 mph N/A Snow Light Snow
2:15 PM 30.2 °F 21.9 °F 19.4 °F 64% 29.74 in 10.0 mi WSW 9.2 mph - N/A   Scattered Clouds
2:35 PM 28.4 °F 17.5 °F 17.6 °F 64% 29.74 in 10.0 mi West 13.8 mph 20.7 mph N/A   Clear
2:55 PM 28.4 °F 18.5 °F 19.4 °F 69% 29.74 in 10.0 mi WSW 11.5 mph 17.3 mph N/A   Clear
3:15 PM 26.6 °F 19.1 °F 19.4 °F 74% 29.74 in 10.0 mi SSW 6.9 mph 16.1 mph N/A   Mostly Cloudy
3:35 PM 26.6 °F 19.1 °F 19.4 °F 74% 29.74 in 10.0 mi SW 6.9 mph - N/A   Overcast
3:55 PM 26.6 °F 16.8 °F 19.4 °F 74% 29.75 in 3.0 mi SW 10.4 mph - N/A Snow Light Snow
4:15 PM 26.6 °F 17.5 °F 19.4 °F 74% 29.75 in 1.5 mi WSW 9.2 mph - N/A Snow Light Snow
4:35 PM 26.6 °F 16.8 °F 21.2 °F 80% 29.75 in 1.0 mi SW 10.4 mph 16.1 mph N/A Snow Light Snow
4:55 PM 26.6 °F 16.2 °F 21.2 °F 80% 29.76 in 0.5 mi West 11.5 mph 17.3 mph N/A Snow Snow
5:15 PM 26.6 °F 16.2 °F 23.0 °F 86% 29.77 in 0.8 mi West 11.5 mph 17.3 mph N/A Snow Light Snow
5:35 PM 26.6 °F 14.3 °F 21.2 °F 80% 29.78 in 5.0 mi West 16.1 mph 21.9 mph N/A   Haze
5:55 PM 26.6 °F 17.5 °F 21.2 °F 80% 29.78 in 7.0 mi WSW 9.2 mph - N/A   Overcast
6:15 PM 26.6 °F 17.5 °F 23.0 °F 86% 29.79 in 10.0 mi WSW 9.2 mph - N/A   Overcast
6:35 PM 28.4 °F 19.1 °F 23.0 °F 80% 29.80 in 5.0 mi WSW 10.4 mph 17.3 mph N/A   Haze
6:55 PM 28.4 °F 18.5 °F 23.0 °F 80% 29.81 in 10.0 mi WSW 11.5 mph 20.7 mph N/A   Overcast
7:15 PM 28.4 °F 18.0 °F 23.0 °F 80% 29.83 in 10.0 mi SW 12.7 mph 17.3 mph N/A   Overcast
7:35 PM 28.4 °F 18.0 °F 23.0 °F 80% 29.83 in 10.0 mi WSW 12.7 mph 19.6 mph N/A   Overcast
7:55 PM 28.4 °F 18.5 °F 21.2 °F 74% 29.85 in 10.0 mi WSW 11.5 mph 20.7 mph N/A   Overcast
8:15 PM 28.4 °F 19.1 °F 23.0 °F 80% 29.86 in 10.0 mi WSW 10.4 mph 18.4 mph N/A   Overcast
8:35 PM 28.4 °F 19.1 °F 23.0 °F 80% 29.86 in 10.0 mi WSW 10.4 mph 18.4 mph N/A   Overcast
8:55 PM 28.4 °F 19.7 °F 21.2 °F 74% 29.87 in 10.0 mi WSW 9.2 mph 16.1 mph N/A   Mostly Cloudy
9:15 PM 28.4 °F 19.1 °F 21.2 °F 74% 29.88 in 10.0 mi WSW 10.4 mph 20.7 mph N/A   Overcast
9:35 PM 28.4 °F 19.7 °F 21.2 °F 74% 29.89 in 10.0 mi WSW 9.2 mph 16.1 mph N/A   Overcast
9:55 PM 28.4 °F 18.5 °F 21.2 °F 74% 29.88 in 10.0 mi WSW 11.5 mph 17.3 mph N/A   Overcast
10:15 PM 28.4 °F 21.2 °F 21.2 °F 74% 29.89 in 10.0 mi WSW 6.9 mph - N/A   Overcast
10:35 PM 28.4 °F 18.0 °F 21.2 °F 74% 29.89 in 10.0 mi West 12.7 mph 23.0 mph N/A   Overcast
10:55 PM 28.4 °F 20.4 °F 23.0 °F 80% 29.89 in 5.0 mi WSW 8.1 mph - N/A   Overcast
11:15 PM 28.4 °F 19.7 °F 23.0 °F 80% 29.89 in 7.0 mi WSW 9.2 mph 16.1 mph N/A   Mostly Cloudy
11:35 PM 28.4 °F 21.2 °F 23.0 °F 80% 29.89 in 7.0 mi WSW 6.9 mph - N/A   Scattered Clouds
11:55 PM 28.4 °F 23.3 °F 23.0 °F 80% 29.89 in 10.0 mi WSW 4.6 mph - N/A   Clear